Time[GMT],current_u[cm/s](18m),current_v[cm/s](18m),current_u[cm/s](26m),current_v[cm/s](26m),current_u[cm/s](34m),current_v[cm/s](34m),current_u[cm/s](42m),current_v[cm/s](42m),current_u[cm/s](50m),current_v[cm/s](50m),current_u[cm/s](58m),current_v[cm/s](58m),current_u[cm/s](66m),current_v[cm/s](66m),current_u[cm/s](74m),current_v[cm/s](74m),current_u[cm/s](82m),current_v[cm/s](82m),current_u[cm/s](90m),current_v[cm/s](90m),current_u[cm/s](98m),current_v[cm/s](98m),current_u[cm/s](106m),current_v[cm/s](106m),current_u[cm/s](114m),current_v[cm/s](114m),current_u[cm/s](122m),current_v[cm/s](122m),current_u[cm/s](130m),current_v[cm/s](130m),current_u[cm/s](138m),current_v[cm/s](138m),current_u[cm/s](146m),current_v[cm/s](146m),current_u[cm/s](154m),current_v[cm/s](154m),current_u[cm/s](162m),current_v[cm/s](162m),current_u[cm/s](170m),current_v[cm/s](170m),current_u[cm/s](178m),current_v[cm/s](178m),current_u[cm/s](186m),current_v[cm/s](186m),current_u[cm/s](194m),current_v[cm/s](194m),current_u[cm/s](202m),current_v[cm/s](202m)
2014-05-30 15:00,-80.66,58.23,-67.99,51.48,-60.55,54.81,-54.85,50.13,-56.06,49.32,-57.04,52.05,-47.09,48.53,-37.98,60.07,-38.81,53.50,-41.03,50.58,-48.92,57.50,-50.13,51.12,-42.11,29.75,-55.89,30.79,-46.01,14.42,-30.95,32.60,-30.26,29.15,-21.30,18.89,-21.67,24.97,-19.45,28.84,-21.17,29.96,-16.51,45.22,-22.40,47.84,-16.57,28.39
2014-05-30 17:00,24.71,23.48,17.53,41.23,11.60,47.62,5.63,45.92,6.86,36.55,15.10,26.59,24.01,20.42,22.74,20.11,14.77,22.70,9.34,26.84,3.00,25.65,-3.49,24.29,-4.57,24.37,-4.27,23.10,-1.42,22.75,-6.79,20.50,-11.37,21.66,-13.15,17.41,-11.63,15.28,-8.25,14.58,-8.92,14.05,-7.92,10.59,-7.77,1.29,-16.79,-10.85
2014-05-30 18:00,21.60,-0.21,17.42,7.90,27.65,0.58,29.80,-4.82,21.52,-1.91,13.78,2.22,10.19,3.27,7.49,8.08,6.69,10.24,3.12,12.87,8.09,16.99,12.22,18.21,12.54,18.84,11.15,18.91,10.60,17.69,10.45,15.85,12.76,15.23,15.19,15.17,13.59,10.98,11.43,6.93,11.44,4.62,5.27,-3.98,-3.92,-14.28,-12.34,-20.13
2014-05-30 21:00,,,,,,,,,,,,,,,,,,,,,,,,,,,,,,,,,,,,,,,,,,,,,,,,
2014-05-30 22:00,-38.28,-50.21,-30.76,-44.53,-19.66,-38.87,-11.14,-26.16,-1.08,-17.26,0.53,-14.74,-4.72,-11.81,-10.85,-8.42,-18.36,-7.26,-15.16,-9.70,-10.23,-12.95,-5.09,-14.24,0.11,-15.72,3.79,-18.00,4.34,-19.72,1.23,-17.25,-1.87,-20.03,-8.43,-24.13,-14.86,-19.47,-16.96,-12.27,-15.88,-6.47,-14.95,-2.49,-15.94,-0.08,-12.49,8.49
2014-05-30 23:00,-59.66,-33.02,-56.54,-25.08,-47.51,-24.08,-40.86,-19.95,-36.25,-15.32,-18.55,-13.20,-15.32,-7.23,-21.35,-2.86,-28.52,0.51,-25.27,2.81,-22.02,2.17,-21.89,-0.83,-20.20,-1.86,-19.05,-3.49,-18.58,-4.28,-19.30,-3.99,-22.93,-6.10,-29.94,-7.83,-36.16,-6.78,-35.61,0.33,-33.42,6.60,-31.81,11.42,-29.31,15.06,-25.32,18.34
2014-05-31 00:00,-98.16,-7.99,-91.39,-2.56,-75.84,5.58,-70.33,0.21,-63.86,1.66,-59.21,1.89,-54.89,-1.76,-44.39,-2.07,-37.48,2.57,-36.21,3.18,-38.01,6.18,-39.43,8.66,-40.50,11.99,-38.35,12.47,-36.79,10.24,-37.66,9.02,-40.06,8.98,-42.50,11.35,-47.10,18.80,-46.45,28.88,-46.15,33.50,-43.10,34.79,-39.03,36.20,-24.97,29.37
2014-05-31 01:00,-115.20,14.69,-93.56,15.96,-81.55,18.46,-77.46,19.14,-70.13,20.86,-56.73,26.21,-49.74,29.30,-46.62,31.03,-46.40,31.00,-47.67,30.70,-49.34,30.69,-51.43,30.96,-52.68,32.24,-55.33,32.97,-55.57,34.04,-54.14,34.82,-49.40,34.45,-45.17,36.65,-42.06,37.44,-40.25,43.27,-38.75,47.74,-32.63,48.97,-23.82,48.33,10.96,27.04
2014-05-31 02:00,-123.44,53.74,-112.61,63.52,-105.09,65.93,-101.42,62.38,-84.38,61.97,-71.63,62.81,-68.97,62.72,-74.14,56.23,-79.42,50.12,-80.26,48.48,-80.74,45.71,-75.00,38.31,-66.36,35.93,-60.45,35.52,-56.75,33.14,-54.46,31.56,-51.56,30.71,-49.38,30.15,-47.22,28.32,-43.36,28.72,-36.50,34.18,-30.92,40.70,-16.26,33.64,-10.32,7.29
2014-05-31 03:00,-93.85,75.74,-86.56,82.17,-75.89,88.85,-66.47,91.88,-68.27,83.74,-73.27,72.16,-73.34,62.89,-73.57,56.10,-69.37,52.82,-66.48,51.02,-66.98,45.40,-66.25,34.29,-57.81,28.28,-51.60,26.28,-48.53,26.53,-47.63,28.61,-46.39,31.95,-46.76,35.40,-50.15,35.15,-50.06,28.67,-39.65,15.21,-31.54,10.88,-30.09,15.86,-22.82,1.39
2014-05-31 04:00,-48.84,67.08,-42.90,67.20,-39.67,64.35,-39.25,57.14,-41.46,46.03,-41.06,36.29,-38.32,32.33,-37.88,32.27,-37.39,33.37,-35.80,34.30,-35.20,36.70,-34.76,36.94,-35.69,32.65,-35.38,29.08,-31.95,30.18,-28.38,30.17,-25.12,30.16,-23.31,31.06,-23.14,31.85,-25.11,34.37,-27.56,32.53,-28.61,26.63,-27.38,18.20,-23.22,10.50
2014-05-31 05:00,-13.04,36.35,-10.75,48.54,-2.84,43.52,-5.21,35.19,-6.58,31.29,-8.78,23.44,-7.00,16.24,-4.04,14.56,-3.13,11.07,-4.55,11.88,-5.96,16.26,-6.58,19.84,-7.29,21.71,-10.19,18.99,-13.12,20.26,-13.05,18.39,-10.12,16.81,-6.19,17.65,-4.64,17.73,-2.46,14.86,-0.76,13.83,2.32,12.09,4.91,8.93,2.57,-2.43
2014-05-31 06:00,33.17,25.56,30.43,28.88,29.77,21.11,25.16,15.53,20.72,6.13,17.87,0.28,15.04,1.26,12.99,5.01,14.21,9.08,14.76,13.25,14.05,15.44,9.20,16.82,10.31,14.65,13.48,12.31,15.02,10.81,16.23,9.31,17.88,6.79,19.04,5.48,19.38,4.75,20.88,3.34,18.84,-1.09,14.23,-11.29,10.52,-26.24,5.13,-36.27
2014-05-31 07:00,59.90,2.85,59.42,-0.25,48.33,-4.65,34.18,-11.92,28.18,-20.05,29.41,-17.02,31.66,-10.95,32.31,-6.75,31.44,-5.35,31.05,-9.04,29.91,-9.41,33.32,-9.26,34.20,-7.40,40.62,-1.24,49.52,2.77,46.37,0.81,38.81,-5.08,32.31,-12.00,24.99,-19.60,18.58,-29.74,11.66,-37.64,7.59,-40.31,2.78,-40.07,-0.12,-30.39
2014-05-31 09:00,,,,,,,,,,,,,,,,,,,,,,,,,,,,,,,,,,,,,,,,,,,,,,,,
2014-05-31 10:00,-10.48,-52.10,-3.40,-44.68,-2.50,-43.23,-4.50,-32.43,1.00,-17.85,7.27,-11.84,6.30,-14.05,3.27,-16.39,0.02,-15.75,-2.09,-14.11,1.29,-14.50,3.46,-16.01,5.26,-16.38,8.38,-14.32,12.09,-13.13,12.53,-11.21,11.11,-8.09,13.19,-5.11,15.16,-2.07,17.44,-1.65,18.41,-5.01,18.31,-8.62,20.16,-10.44,21.59,-15.23
2014-05-31 11:00,-35.41,-28.07,-42.30,-38.37,-31.71,-33.71,-25.05,-20.12,-16.89,-11.83,-4.19,-7.23,1.47,-9.82,-2.78,-8.35,-5.89,-6.83,-7.66,-6.24,-6.81,-6.60,-1.83,-10.67,-0.78,-12.96,-3.02,-13.15,-5.55,-9.55,-2.21,-8.17,1.01,-5.77,4.62,-5.87,2.52,-6.86,0.94,-3.58,-0.79,-0.15,-0.17,2.15,0.91,2.08,1.91,0.93
2014-05-31 12:00,-55.63,-3.05,-61.63,-7.92,-68.85,-3.41,-54.94,-0.62,-39.48,7.49,-29.47,11.65,-18.83,15.80,-13.43,15.64,-15.59,11.27,-18.31,11.24,-19.74,11.10,-18.85,10.96,-17.83,11.71,-18.39,12.79,-18.89,13.37,-21.14,15.79,-19.63,18.28,-16.84,21.38,-13.25,20.32,-11.04,19.35,-9.71,19.78,-8.84,21.63,-7.27,23.29,-8.47,23.75
2014-05-31 13:00,-86.40,25.72,-90.42,31.05,-91.93,37.70,-78.08,34.17,-61.71,27.66,-51.91,24.29,-40.33,24.55,-33.82,21.91,-35.13,23.38,-37.60,29.10,-42.27,32.54,-43.16,29.10,-42.39,24.73,-41.58,20.26,-36.91,17.14,-34.22,16.95,-33.27,19.56,-31.00,24.92,-28.05,31.43,-25.12,33.42,-21.97,32.44,-18.20,29.55,-17.32,29.41,-14.40,22.27
2014-05-31 14:00,-84.26,58.97,-78.59,54.38,-83.09,53.04,-85.98,51.90,-81.80,43.79,-80.09,38.77,-77.22,37.70,-71.68,32.86,-60.53,31.19,-51.17,37.03,-55.16,42.26,-56.51,37.63,-57.89,33.09,-56.27,28.04,-54.45,29.26,-54.61,37.29,-48.77,45.57,-38.35,46.82,-31.69,42.44,-24.91,34.75,-22.27,28.14,-21.31,23.20,-19.47,18.12,-10.47,11.66
2014-05-31 15:00,-65.53,79.79,-54.91,76.16,-45.44,74.79,-41.81,74.28,-41.37,68.01,-43.28,64.14,-38.13,63.48,-38.21,61.78,-42.86,55.98,-44.04,43.94,-45.86,42.73,-44.11,40.87,-43.17,36.97,-41.89,26.78,-40.04,19.70,-44.83,18.59,-46.26,17.50,-41.84,10.93,-44.56,10.90,-44.72,13.68,-39.68,18.24,-34.14,21.60,-24.55,19.22,-18.29,2.01
2014-05-31 16:00,-34.01,64.07,-22.38,61.19,-15.49,58.04,-11.22,57.84,-11.79,57.34,-14.54,58.03,-17.44,61.51,-20.89,61.14,-29.36,58.42,-34.25,54.33,-37.79,48.99,-40.28,43.68,-41.46,40.15,-43.12,38.14,-41.19,36.03,-41.34,36.83,-40.84,39.19,-38.50,38.47,-34.87,35.33,-32.22,31.67,-28.27,25.90,-26.40,20.72,-27.05,16.21,-9.83,3.78
2014-05-31 17:00,-32.56,37.96,-25.04,40.69,-17.91,32.90,-11.23,22.23,-2.00,16.37,-2.47,20.11,-6.81,33.31,-10.06,42.14,-9.66,38.59,-10.09,31.10,-12.07,29.42,-15.07,30.24,-15.73,30.03,-14.95,29.23,-12.10,27.20,-9.73,23.76,-8.74,18.72,-8.48,11.35,-9.48,6.62,-10.98,5.40,-11.40,10.31,-14.74,7.97,-18.51,-0.59,-17.86,-7.52
2014-05-31 18:00,-0.79,23.06,-5.45,21.88,-5.96,16.26,-3.81,6.97,3.27,1.26,4.13,12.98,7.97,23.25,10.23,27.34,10.86,26.38,8.81,21.94,6.63,19.25,2.10,18.00,-2.81,20.52,-3.20,22.39,-2.53,22.61,0.40,16.09,2.42,9.81,0.41,5.91,-3.28,3.67,-4.16,3.81,-6.27,7.75,-8.14,4.42,-11.25,-1.93,-11.81,-3.79
2014-05-31 19:00,,,,,,,,,,,,,,,,,,,,,,,,,,,,,,,,,,,,,,,,,,,,,,,,
2014-05-31 20:00,,,,,,,,,,,,,,,,,,,,,,,,,,,,,,,,,,,,,,,,,,,,,,,,
2014-05-31 21:00,,,,,,,,,,,,,,,,,,,,,,,,,,,,,,,,,,,,,,,,,,,,,,,,
2014-05-31 22:00,-42.98,-45.73,-36.42,-56.01,-23.59,-56.73,-19.72,-55.69,-11.21,-46.87,-9.84,-40.66,-12.79,-35.72,-9.64,-33.76,-0.26,-35.16,9.21,-36.22,14.11,-39.37,20.40,-42.29,24.52,-44.64,22.92,-40.64,18.50,-34.71,14.27,-30.39,10.39,-27.12,8.54,-25.62,6.46,-25.34,4.24,-23.01,4.79,-21.15,5.04,-18.65,2.98,-16.48,-1.24,-15.10
2014-05-31 23:00,-37.94,-30.35,-41.16,-41.26,-34.90,-50.28,-20.07,-50.03,-13.30,-41.98,-7.59,-40.14,0.80,-36.19,4.54,-32.78,3.14,-30.39,1.32,-26.36,0.81,-26.73,4.37,-28.32,12.53,-31.16,17.28,-33.21,20.37,-34.32,20.94,-34.13,19.79,-29.57,18.52,-24.30,17.91,-22.08,19.23,-19.35,19.51,-17.26,19.22,-15.04,10.53,-19.72,22.16,-9.48
2014-06-01 00:00,-68.08,-4.84,-67.73,-7.25,-70.98,-15.75,-60.79,-17.73,-55.01,-18.08,-50.88,-22.43,-45.03,-22.33,-36.75,-22.62,-34.55,-21.60,-36.87,-16.98,-35.00,-15.96,-32.43,-18.39,-30.87,-20.63,-29.02,-18.87,-25.88,-17.87,-23.38,-17.80,-22.30,-17.56,-21.02,-13.37,-23.41,-8.88,-21.84,-4.60,-21.15,-2.17,-17.27,2.44,-13.72,3.47,-5.36,4.58
2014-06-01 01:00,-79.04,27.98,-68.76,27.39,-71.65,29.19,-80.79,24.27,-86.96,12.10,-80.13,9.14,-71.41,11.73,-67.86,9.51,-66.86,2.80,-62.82,1.99,-57.77,3.30,-51.13,3.86,-48.73,0.32,-45.41,0.12,-42.04,1.73,-39.89,1.90,-38.36,3.33,-35.25,3.81,-32.89,2.99,-29.41,2.63,-27.10,2.96,-27.89,3.44,-24.24,3.87,-15.09,4.82
2014-06-01 02:00,-100.87,35.46,-102.32,38.67,-102.29,41.52,-100.02,40.99,-94.08,34.91,-81.23,27.28,-67.37,30.25,-59.33,33.99,-58.35,34.20,-59.51,34.88,-61.77,30.79,-61.77,24.91,-59.85,24.48,-54.28,27.10,-48.88,26.95,-45.51,22.67,-40.84,18.61,-37.29,16.38,-34.64,15.97,-29.11,12.81,-23.75,11.81,-24.06,14.43,-28.05,17.67,-16.55,12.96
2014-06-01 03:00,-103.13,73.60,-100.38,68.28,-93.01,67.92,-83.64,63.26,-70.55,57.17,-55.95,53.88,-45.98,51.62,-39.56,46.33,-36.33,46.42,-38.56,45.18,-45.61,42.60,-51.15,35.67,-50.14,27.59,-47.41,19.44,-43.76,17.56,-41.82,21.97,-37.33,24.67,-30.81,25.29,-28.31,28.30,-23.56,25.62,-18.04,21.51,-20.35,21.19,-14.21,10.56,-13.47,3.03
2014-06-01 04:00,-67.95,66.72,-60.80,67.02,-53.58,70.39,-47.67,72.92,-49.64,69.56,-49.81,65.51,-44.30,63.71,-40.83,59.46,-35.81,56.25,-28.53,50.92,-25.83,49.05,-28.03,45.09,-32.48,39.67,-39.76,33.55,-45.36,27.76,-48.61,19.58,-48.28,12.01,-46.94,10.77,-46.37,13.57,-44.36,15.48,-39.89,13.03,-36.83,12.65,-30.70,9.57,-23.98,1.75
2014-06-01 05:00,-31.35,50.85,-22.22,49.58,-13.86,47.43,-11.31,41.11,-9.86,37.90,-3.81,35.75,2.66,34.25,3.92,34.55,4.35,36.16,8.07,35.05,10.12,33.92,6.87,32.24,0.05,32.89,-5.74,35.23,-9.86,35.28,-13.31,31.96,-15.68,25.95,-14.73,20.69,-11.04,19.35,-8.94,15.41,-7.22,10.71,-5.62,6.70,-3.59,-1.57,-0.03,-8.73
2014-06-01 06:00,6.18,26.88,1.96,28.88,1.42,25.03,3.03,21.98,2.73,18.31,-0.23,13.79,-0.14,10.56,8.57,8.32,15.68,5.46,13.40,7.35,12.95,9.72,13.05,7.45,7.02,5.61,3.19,7.74,2.50,11.52,2.44,14.65,3.37,16.00,6.22,13.02,5.74,9.93,4.79,7.32,3.19,2.81,1.52,-2.77,0.52,-10.44,0.29,-13.98
2014-06-01 07:00,,,,,,,,,,,,,,,,,,,,,,,,,,,,,,,,,,,,,,,,,,,,,,,,
2014-06-01 08:00,,,,,,,,,,,,,,,,,,,,,,,,,,,,,,,,,,,,,,,,,,,,,,,,
2014-06-01 09:00,,,,,,,,,,,,,,,,,,,,,,,,,,,,,,,,,,,,,,,,,,,,,,,,
2014-06-01 10:00,-12.10,-27.09,-10.20,-24.17,-6.40,-24.22,-0.65,-27.10,7.81,-34.78,6.90,-42.42,13.38,-40.03,16.52,-39.02,19.43,-41.87,21.31,-40.84,20.39,-37.99,19.72,-38.20,20.33,-40.10,16.92,-37.31,15.80,-35.47,17.63,-35.93,20.15,-36.28,21.13,-36.38,21.47,-34.49,22.68,-33.68,25.27,-31.59,28.76,-30.36,29.97,-26.93,23.72,-22.53
2014-06-01 11:00,-6.89,-30.57,-3.98,-25.54,-2.72,-19.99,3.44,-20.53,9.16,-26.26,10.74,-29.85,12.29,-29.45,13.92,-30.93,17.10,-32.32,20.86,-32.27,23.11,-31.75,23.67,-29.89,24.51,-31.52,24.46,-30.06,25.12,-30.16,29.16,-30.97,32.29,-30.91,35.36,-33.60,27.43,-35.72,25.92,-37.89,24.47,-37.62,32.74,-22.47,33.90,-36.90,26.68,-29.77
2014-06-01 12:00,-51.62,-12.27,-45.68,-6.58,-45.75,-1.45,-38.96,0.31,-30.66,1.60,-26.20,-4.42,-21.48,-9.31,-21.00,-14.09,-20.00,-18.50,-13.29,-20.44,-0.18,-15.81,1.21,-13.90,1.03,-12.69,1.01,-11.97,1.32,-9.66,2.80,-6.77,3.44,-6.46,15.16,-2.07,7.93,-6.06,9.07,-6.65,10.46,-6.09,12.36,-6.11,30.17,0.23,0.34,-9.55
2014-06-01 13:00,-64.89,0.28,-61.50,3.78,-55.38,5.64,-46.90,16.87,-46.70,21.14,-50.93,15.68,-47.79,2.62,-43.46,-3.34,-43.54,-2.11,-39.28,-3.26,-35.29,-5.87,-32.42,-6.00,-32.80,-6.12,-34.36,-4.52,-34.34,0.63,-33.97,5.06,-30.24,7.83,-26.90,6.91,-24.49,4.32,-20.78,2.25,-19.16,0.15,-16.95,-2.50,-15.17,-5.08,-12.15,-6.32
2014-06-01 14:00,-104.78,24.75,-92.35,19.40,-84.37,17.76,-66.44,23.09,-55.92,27.94,-67.80,28.96,-66.90,32.71,-62.85,36.12,-62.15,33.29,-66.45,25.09,-73.72,17.29,-70.38,12.80,-64.20,10.89,-56.90,11.04,-53.52,10.65,-52.96,12.83,-49.41,15.85,-43.87,19.21,-42.72,20.21,-37.61,21.95,-34.14,20.97,-30.09,18.49,-31.14,12.27,-21.25,0.43
2014-06-01 15:00,-88.31,41.81,-78.60,39.04,-70.56,28.07,-51.78,27.17,-43.61,25.59,-36.79,30.20,-31.11,35.38,-36.16,41.96,-33.37,44.74,-24.03,42.80,-33.69,39.49,-31.42,35.39,-32.76,32.02,-32.58,28.19,-33.07,23.83,-33.69,21.85,-28.29,24.32,-27.20,22.88,-25.11,25.55,-19.91,29.32,-12.22,33.47,-13.73,31.30,-13.25,25.57,-7.94,16.88
2014-06-01 16:00,-63.70,76.07,-52.98,73.42,-55.87,63.77,-64.44,46.95,-61.23,36.95,-53.73,36.84,-42.84,34.98,-33.16,32.62,-21.12,26.20,-18.26,27.43,-21.56,29.21,-19.64,33.71,-20.08,37.03,-19.75,35.99,-17.99,31.82,-17.40,21.82,-19.98,26.56,-19.64,17.01,-23.81,26.07,-23.95,27.49,-18.76,24.75,-9.02,19.26,-1.58,19.66,-2.00,10.49
2014-06-01 18:00,,,,,,,,,,,,,,,,,,,,,,,,,,,,,,,,,,,,,,,,,,,,,,,,
2014-06-01 19:00,,,,,,,,,,,,,,,,,,,,,,,,,,,,,,,,,,,,,,,,,,,,,,,,
2014-06-01 20:00,57.39,-11.93,56.65,-15.84,50.60,-22.51,37.25,-26.06,31.20,-29.47,27.30,-27.78,30.25,-27.47,34.32,-25.11,33.14,-23.39,32.32,-22.50,34.24,-20.62,35.06,-17.94,38.26,-15.13,39.97,-11.95,41.97,-10.68,41.25,-10.39,39.53,-8.95,37.78,-6.46,33.69,-7.77,29.83,-11.11,22.45,-17.58,12.29,-26.51,3.19,-32.17,-11.09,-27.30
2014-06-01 21:00,,,,,,,,,,,,,,,,,,,,,,,,,,,,,,,,,,,,,,,,,,,,,,,,
2014-06-01 22:00,-7.22,-43.91,-5.46,-44.50,16.51,-48.16,26.06,-45.20,23.91,-40.11,20.70,-37.99,18.44,-34.20,21.21,-29.74,22.73,-32.51,22.61,-34.44,22.90,-34.03,16.91,-34.69,17.75,-38.94,22.33,-42.72,28.65,-45.73,31.39,-46.43,31.13,-44.62,29.77,-41.38,25.17,-37.50,20.39,-35.36,18.90,-32.69,19.65,-30.13,17.95,-23.85,10.80,-15.33
2014-06-01 23:00,13.08,-49.57,4.00,-38.31,-3.41,-39.43,-14.07,-39.28,-6.69,-35.44,4.19,-32.68,3.51,-28.28,4.67,-26.96,7.10,-27.34,4.86,-29.84,2.66,-30.86,2.60,-28.36,0.25,-28.91,1.11,-33.88,3.42,-36.50,6.67,-37.77,9.50,-35.81,9.52,-33.91,8.84,-32.45,8.58,-30.96,8.25,-26.34,8.64,-22.33,8.98,-16.86,3.20,-10.63
2014-06-02 00:00,12.96,-45.94,15.17,-41.03,3.83,-33.85,-14.35,-24.98,-9.25,-32.69,-1.20,-31.58,0.41,-28.75,2.70,-24.76,4.82,-24.82,1.95,-23.42,-1.51,-21.80,-2.31,-19.96,-2.37,-16.83,-4.95,-15.66,-4.89,-18.79,-4.32,-21.55,-2.81,-22.01,-0.91,-19.09,-0.30,-15.75,4.24,-16.49,9.42,-17.56,14.68,-19.86,14.25,-32.29,18.20,-21.67
2014-06-02 01:00,-48.62,-35.67,-37.77,-34.81,-29.80,-31.83,-34.55,-27.16,-44.12,-17.63,-52.66,-14.91,-49.83,-18.83,-40.75,-18.65,-36.63,-15.44,-34.12,-13.79,-31.21,-13.70,-32.60,-13.62,-34.97,-10.81,-37.11,-6.77,-38.57,-4.19,-39.97,-2.75,-38.91,-1.15,-36.77,3.95,-33.30,8.21,-31.62,11.80,-28.71,12.21,-23.57,10.60,-17.71,5.45,-7.86,0.94
2014-06-02 02:00,-62.15,8.09,-62.54,4.39,-63.14,1.05,-56.21,-0.93,-45.85,0.51,-45.75,12.30,-50.64,13.78,-50.46,6.69,-51.27,2.34,-56.74,4.99,-58.07,8.14,-51.88,10.13,-45.00,11.92,-44.82,13.65,-47.76,19.54,-47.64,24.72,-43.74,25.66,-39.76,25.04,-37.69,20.88,-31.11,23.94,-25.50,30.04,-20.56,31.31,-17.61,26.06,-7.84,19.85
2014-06-02 03:00,-56.73,26.21,-53.30,25.00,-48.45,20.05,-43.41,18.10,-41.98,18.87,-43.56,18.89,-44.32,21.90,-49.07,26.57,-51.11,33.58,-54.31,33.40,-57.56,31.41,-58.62,32.75,-57.03,33.05,-56.56,32.88,-54.70,32.01,-52.15,33.88,-49.67,35.31,-47.92,39.02,-44.07,41.09,-39.40,42.91,-32.05,44.53,-21.48,44.67,-9.92,43.97,-3.09,35.45
2014-06-02 04:00,-63.82,37.17,-64.86,37.47,-64.15,38.85,-65.99,40.99,-68.31,42.66,-64.08,44.54,-55.58,47.48,-48.74,47.79,-47.28,48.78,-45.50,49.46,-43.47,49.69,-41.48,47.07,-44.82,41.80,-51.34,35.61,-58.34,29.58,-61.22,26.45,-58.21,26.26,-48.93,27.77,-38.72,27.37,-33.48,29.37,-24.51,30.88,-22.97,30.33,-22.87,25.11,-20.46,14.65
2014-06-02 05:00,-96.41,69.66,-99.57,63.82,-89.85,65.26,-73.25,67.86,-59.89,66.47,-54.74,65.50,-50.64,65.14,-46.89,63.29,-44.55,60.58,-42.06,56.76,-37.81,52.98,-34.45,47.44,-28.07,41.30,-22.80,34.38,-19.24,30.16,-19.13,28.52,-19.02,24.88,-16.08,18.36,-15.38,19.11,-17.48,14.87,-6.33,5.64,-1.42,2.80,3.53,1.76,8.80,0.41
2014-06-02 06:00,-53.26,47.81,-59.63,41.14,-56.56,38.45,-43.07,43.20,-29.10,45.17,-17.86,43.84,-5.15,43.51,6.27,38.04,5.28,28.69,2.21,25.18,-1.98,21.21,-7.70,21.05,-9.24,22.24,-11.40,21.76,-13.45,16.69,-12.71,8.84,-13.55,1.32,-13.74,-10.19,-7.29,-21.14,1.65,-24.78,10.88,-25.39,19.31,-26.78,20.54,-27.33,14.18,-30.74
2014-06-02 08:00,28.47,15.34,29.60,16.75,38.82,12.88,48.77,6.42,57.79,1.23,61.22,-0.93,57.53,-5.16,45.67,-11.38,32.72,-15.23,28.02,-16.63,27.35,-15.17,27.44,-15.45,25.60,-18.25,20.79,-21.58,18.91,-28.48,22.52,-33.84,24.55,-36.23,26.14,-38.24,25.28,-42.09,19.90,-45.29,11.67,-42.89,2.01,-40.94,-5.67,-37.95,-8.76,-25.71
2014-06-02 09:00,56.01,0.23,51.00,-0.85,50.43,-4.29,47.54,-10.99,43.98,-18.23,44.23,-26.55,48.23,-34.09,48.79,-31.60,48.38,-26.37,47.13,-21.84,45.79,-20.27,46.22,-26.86,45.57,-31.37,44.69,-34.18,41.66,-35.88,38.39,-40.08,36.37,-42.94,29.65,-46.88,20.08,-48.80,12.48,-49.35,6.72,-49.73,1.58,-45.49,0.06,-37.79,-4.68,-25.34
2014-06-02 10:00,44.98,-16.12,38.25,-18.70,33.73,-23.62,29.85,-31.48,33.94,-39.62,35.54,-37.74,30.31,-32.91,28.90,-31.47,33.26,-32.59,34.80,-32.83,36.84,-34.91,37.51,-39.63,34.19,-42.69,28.78,-45.16,23.13,-44.56,17.02,-44.84,11.78,-44.53,9.25,-44.19,8.20,-45.16,6.68,-45.01,4.45,-43.63,3.55,-39.19,3.39,-30.84,-0.08,-21.35
2014-06-02 13:00,-25.55,-11.35,-21.79,-8.68,-21.72,-7.92,-26.78,-11.12,-28.97,-17.39,-30.58,-17.28,-35.76,-16.21,-34.36,-13.03,-34.28,-11.01,-35.69,-10.20,-35.21,-7.10,-32.98,-2.29,-34.80,-1.20,-38.03,-4.54,-38.60,-7.67,-39.56,-5.67,-38.13,-1.63,-37.46,3.83,-36.23,6.54,-37.07,8.48,-36.49,12.23,-34.05,17.74,-30.58,22.95,-28.18,20.05
2014-06-02 14:00,-22.91,-0.95,-15.49,-5.39,-13.12,-8.52,-21.58,-4.09,-26.77,-1.66,-38.35,1.03,-49.22,7.09,-50.19,5.21,-45.64,-0.47,-40.81,1.81,-40.82,3.80,-43.74,5.70,-48.43,10.50,-50.98,14.20,-50.74,13.12,-46.97,10.55,-40.95,11.43,-37.69,12.37,-34.84,15.28,-28.98,21.89,-25.43,31.43,-21.35,36.42,-17.33,34.35,-8.86,24.99
2014-06-02 15:00,-34.81,15.19,-35.82,15.39,-41.76,15.58,-50.43,15.11,-57.34,16.99,-64.61,22.32,-72.84,27.34,-66.42,25.31,-62.90,23.18,-64.36,25.13,-63.60,22.43,-63.88,23.29,-65.26,30.20,-62.68,34.60,-58.56,37.49,-55.64,38.53,-51.83,37.77,-50.19,37.24,-47.77,38.86,-45.92,42.60,-42.82,46.01,-37.44,48.58,-28.01,49.61,-14.08,36.65
2014-06-02 16:00,-66.30,39.00,-55.56,34.99,-50.16,34.20,-44.73,33.01,-35.31,32.78,-31.75,31.82,-40.16,31.85,-49.62,31.23,-60.66,30.62,-70.62,31.21,-72.07,28.53,-68.11,26.34,-61.61,28.01,-57.58,29.20,-50.72,32.03,-46.90,37.14,-44.71,43.73,-41.47,50.65,-38.10,58.14,-34.34,66.07,-29.99,67.25,-25.55,60.28,-28.53,51.23,-30.46,39.27
2014-06-02 17:00,-43.22,55.13,-42.27,52.81,-35.01,48.20,-31.23,43.96,-26.05,37.64,-21.90,32.56,-25.68,34.19,-34.94,40.46,-45.91,43.23,-57.64,37.89,-68.00,33.20,-67.00,32.68,-62.71,31.43,-57.52,29.32,-50.83,27.79,-45.72,26.60,-39.93,26.56,-36.44,27.47,-32.55,30.40,-27.31,35.34,-17.58,43.30,-8.05,44.05,-6.73,37.33,-11.59,21.70
2014-06-02 18:00,-6.43,33.44,-5.77,30.39,-8.81,30.05,-5.92,27.61,-1.68,19.63,0.12,13.38,-4.54,18.71,-19.68,27.29,-36.02,31.39,-34.85,34.60,-29.82,32.02,-31.55,26.95,-33.24,25.67,-29.72,23.54,-27.93,21.91,-25.08,20.20,-20.58,20.59,-9.64,26.10,0.62,32.76,6.43,34.94,6.02,32.60,0.04,29.32,-11.53,24.45,-12.56,10.99
2014-06-02 19:00,2.08,-3.22,7.91,-5.02,9.82,-7.03,9.58,-11.84,7.91,-17.10,3.90,-10.83,-5.11,4.14,-15.86,18.64,-27.68,30.92,-26.80,30.47,-19.34,23.93,-12.28,22.21,-13.10,22.16,-15.07,21.10,-15.36,18.39,-12.29,15.38,-10.92,10.78,-5.90,7.24,5.17,10.06,11.93,11.92,15.09,11.88,15.21,11.50,13.03,8.17,2.57,1.14
2014-06-02 20:00,,,,,,,,,,,,,,,,,,,,,,,,,,,,,,,,,,,,,,,,,,,,,,,,
2014-06-02 21:00,,,,,,,,,,,,,,,,,,,,,,,,,,,,,,,,,,,,,,,,,,,,,,,,
2014-06-02 22:00,,,,,,,,,,,,,,,,,,,,,,,,,,,,,,,,,,,,,,,,,,,,,,,,
2014-06-02 23:00,8.73,-37.32,13.17,-27.60,15.19,-21.48,12.10,-12.82,3.73,-11.93,1.29,-14.50,5.54,-19.86,7.18,-22.69,10.83,-27.51,16.84,-30.20,19.54,-34.37,18.53,-39.74,21.42,-41.86,24.72,-46.26,24.91,-49.14,13.88,-48.79,5.59,-49.14,1.57,-43.82,0.52,-33.02,-2.05,-25.02,-3.55,-18.05,-3.65,-9.89,-4.05,-3.40,-6.98,1.12
2014-06-03 00:00,-26.64,-35.44,-15.86,-30.09,-10.89,-26.29,-5.60,-14.61,-5.21,-10.92,-5.87,-15.75,-7.58,-18.92,-10.39,-21.61,-9.43,-23.61,-5.65,-27.55,-4.88,-32.55,-3.00,-36.46,1.73,-40.40,5.00,-39.78,2.80,-38.80,-2.75,-37.22,-6.97,-35.22,-11.30,-31.88,-15.65,-22.25,-16.77,-12.53,-16.00,-5.45,-13.20,-1.09,-9.91,1.75,-6.30,4.91
2014-06-03 01:00,-42.95,-23.24,-30.87,-17.68,-27.64,-16.96,-29.34,-19.19,-23.01,-13.38,-18.61,-9.44,-24.10,-11.94,-27.77,-9.02,-29.59,-7.93,-29.97,-10.36,-28.81,-14.29,-26.70,-21.18,-22.98,-27.54,-21.79,-28.63,-21.23,-26.46,-23.04,-24.73,-26.75,-22.35,-29.97,-16.24,-31.99,-7.65,-30.90,2.68,-26.46,12.41,-23.88,19.75,-19.03,23.30,-15.97,25.86
2014-06-03 02:00,-81.74,-13.64,-73.53,-12.06,-58.49,-9.85,-53.19,-8.68,-49.45,-7.90,-46.09,-6.60,-45.63,-5.41,-47.82,-3.49,-49.05,-2.62,-49.65,0.23,-46.32,0.67,-44.38,-1.12,-43.42,-3.12,-44.99,-4.47,-47.05,-7.54,-52.59,-11.21,-56.36,-8.64,-51.97,1.90,-45.83,10.91,-41.20,20.38,-37.51,27.87,-34.90,32.49,-26.92,33.16,-15.89,32.50
2014-06-03 03:00,-92.69,11.62,-84.33,13.05,-76.32,11.00,-67.49,10.99,-59.46,10.53,-57.80,11.90,-56.74,13.82,-57.71,17.18,-59.85,18.28,-57.65,16.99,-53.02,15.64,-49.94,13.90,-50.45,13.53,-50.10,13.43,-51.77,14.36,-56.58,17.23,-58.46,23.77,-55.97,26.46,-50.76,28.23,-46.47,33.18,-44.52,40.53,-43.28,44.18,-34.90,46.88,-14.96,40.04
2014-06-03 04:00,-106.22,29.23,-98.67,37.11,-83.65,34.16,-69.03,26.25,-59.48,23.02,-62.27,22.86,-61.08,24.71,-57.40,26.00,-55.64,30.66,-54.60,32.67,-54.26,35.20,-52.96,37.71,-54.01,40.00,-55.68,40.94,-57.92,38.43,-56.70,31.37,-54.39,28.75,-48.58,30.61,-49.29,32.80,-48.93,36.59,-44.83,41.48,-42.48,45.28,-34.45,44.50,-19.69,40.73
2014-06-03 05:00,-83.04,51.90,-82.17,44.93,-76.59,40.32,-63.24,40.61,-54.65,42.63,-60.64,41.66,-65.40,39.50,-66.70,36.66,-60.97,31.26,-52.20,26.51,-49.72,27.94,-47.43,31.61,-41.29,32.75,-39.19,33.74,-40.03,34.72,-42.46,35.73,-43.56,35.90,-41.28,36.32,-37.75,37.77,-31.89,38.49,-24.48,39.61,-22.39,40.28,-26.30,38.08,-19.18,29.66
2014-06-03 06:00,-43.55,62.69,-43.70,57.91,-38.39,57.73,-33.70,52.30,-30.71,48.22,-42.22,45.15,-44.59,39.77,-34.33,32.35,-29.33,27.55,-34.74,24.45,-37.70,25.81,-40.23,22.27,-38.04,23.60,-34.74,27.08,-32.46,29.80,-32.86,28.73,-29.85,28.86,-26.06,28.18,-20.11,26.31,-15.35,24.58,-14.14,22.45,-11.68,19.04,-17.17,17.49,-19.19,9.07
2014-06-03 08:00,18.86,24.33,16.68,21.64,21.51,14.47,25.26,2.12,18.31,5.46,6.23,14.60,1.92,15.95,4.55,11.02,2.35,0.86,0.18,-0.89,-0.84,4.25,0.96,7.14,7.18,8.71,6.27,9.58,2.60,6.61,5.62,4.74,8.72,1.96,6.95,2.55,5.44,5.32,1.27,6.18,-2.30,6.51,-5.08,6.67,-3.51,3.07,-5.48,-0.60
2014-06-03 09:00,42.94,5.28,29.72,5.24,26.22,0.44,26.18,2.21,17.35,10.09,12.57,7.29,9.90,-2.39,4.95,-9.54,0.58,-7.69,3.31,-6.39,9.47,-4.63,9.09,-4.43,10.72,-5.59,13.01,-7.16,12.16,-3.87,10.14,2.10,10.17,4.95,12.62,5.52,17.17,8.66,22.29,11.36,23.98,12.32,19.59,12.27,10.28,6.24,-0.55,2.03